Regional Weather Roundup
Issued by NWS

Home | Current Version | Previous Version | Text Only | Print | Product List | Glossary On
Versions: 1 2 3 4 5 6 7 8 9 10 11 12 13 14 15 16 17 18 19 20 21 22 23 24 25 26 27 28 29 30 31 32 33 34 35 36 37 38 39 40 41 42 43 44 45 46 47 48 49 50
749
ASUS43 KMPX 281701
RWRMN
WEATHER ROUNDUP FOR MINNESOTA
NATIONAL WEATHER SERVICE TWIN CITIES/CHANHASSEN MN
1100 AM CST TUE FEB 28 2017


NOTE: "FAIR" INDICATES FEW OR NO CLOUDS BELOW 12,000 FEET WITH NO
SIGNIFICANT WEATHER AND/OR OBSTRUCTIONS TO VISIBILITY. N/A MEANS
CURRENT SKY AND/OR WEATHER CONDITIONS ARE NOT AVAILABLE.

MNZ060>063-068>070-281800-
   Twin Cities Metro

CITY           SKY/WX    TMP DP  RH WIND       PRES   REMARKS
TWIN CITIES    CLOUDY    45  32  60 NE12      29.71R
ST PAUL        CLOUDY    45  34  65 NE12      29.72S
CRYSTAL        CLOUDY    42  29  59 N12       29.70R
BLAINE         CLOUDY    43  32  65 NE9       29.72R
LAKEVILLE      MOSUNNY   43  36  75 NE5       29.69R
EDEN PRAIRIE   CLOUDY    45  32  60 NE10      29.69R
SOUTH ST PAUL  CLOUDY    44  33  65 NE6       29.70R
LAKE ELMO      CLOUDY    43  34  70 NE7       29.72R
$$
MNZ001>005-007-008-013>017-022>024-027-028-281800-
   Northwest Minnesota

CITY           SKY/WX    TMP DP  RH WIND       PRES   REMARKS
BEMIDJI        MOSUNNY   28  19  70 N7        29.84S WCI  21
HALLOCK        SUNNY     16   7  67 NE7       29.97R WCI   6
ROSEAU         SUNNY     16   9  73 E15       29.95S WCI   1
WARROAD        SUNNY     14   7  73 NE8       29.96R WCI   3
THIEF RVR FALL SUNNY     19  13  77 NE10      29.93R WCI   7
CROOKSTON      SUNNY     21  16  79 NE7       29.94S WCI  13
FOSSTON        PTSUNNY   25  19  80 NE8       29.87F WCI  16
DETROIT LAKES  SUNNY     30  23  74 E10       29.82S WCI  21
MOORHEAD       MOSUNNY   25  19  80 N17       29.87S WCI  11
PARK RAPIDS    CLOUDY    27  19  72 E7        29.82R WCI  19
MAHNOMEN       FAIR      28  21  76 N8        29.84F WCI  19
$$
MNZ006-009>011-018-025>026-281800-
   North Central Minnesota

CITY           SKY/WX    TMP DP  RH WIND       PRES   REMARKS
BAUDETTE       SUNNY     21  12  68 E9        29.91S WCI  11
FLAG ISLAND    SUNNY     12   3  67 N9        29.96S WCI   0
INTL FALLS     SUNNY     21  13  71 NE10      29.91S WCI  10
WASKISH        PTSUNNY   27  18  69 NE8       29.88S WCI  18
BIG FORK       PTSUNNY   28  19  69 NE9       29.85S WCI  20
LONGVILLE      CLOUDY    27  23  86 N6        29.82S WCI  20
GRAND RAPIDS   CLOUDY    28  23  81 N8        29.84R WCI  20
CRANE LAKE     CLOUDY    23  18  80 NE6       29.91S WCI  16
ORR            MOSUNNY   28  16  59 CALM      29.84S
COOK           CLOUDY    25  19  80 NE6       29.86S WCI  18
WALKER         CLOUDY    26  20  80 NE7       29.83S WCI  18
$$
MNZ012-019>021-037-281800-
   Northeast Minnesota

CITY           SKY/WX    TMP DP  RH WIND       PRES   REMARKS
DULUTH         LGT SNOW  32  30  92 E10       29.78S FOG     WCI  24
ELY            CLOUDY    25  19  80 N6        29.84R WCI  18
HIBBING        CLOUDY    26  22  84 N12       29.81F WCI  16
EVELETH        CLOUDY    28  21  77 NE12      29.83S WCI  17
DULUTH HARBOR  MIX PCPN  34  30  86 NE8       29.82S WCI  27
TWO HARBORS    LGT SNOW  36  30  80 NE8       29.79S
SILVER BAY     CLOUDY    32  30  93 NE6       29.80S WCI  26
GRAND MARAIS     N/A     32  25  75 NE7       29.85S WCI  26
G MARAIS ARPRT CLOUDY    25  19  80 N12       29.81R WCI  14
$$
MNZ029>031-032-039>041-046>048-054>057-064-281800-
   West Central Minnesota

CITY           SKY/WX    TMP DP  RH WIND       PRES   REMARKS
FERGUS FALLS   MOSUNNY   28  21  74 NE10      29.85S WCI  19
WHEATON        PTSUNNY   28  21  74 N13       29.83S WCI  18
MORRIS         CLOUDY    34  28  80 N12       29.76S WCI  25
ALEXANDRIA     CLOUDY    32  26  78 NE10      29.76F WCI  24
ELBOW LAKE     FAIR      28  22  76 E13       29.79S WCI  18
WADENA         CLOUDY    27  21  80 NE10      29.80R WCI  17
GLENWOOD       LGT SNOW  32  30  93 N12       29.75F WCI  23
APPLETON       FLURRIES  30  28  93 N12       29.76F WCI  21
BENSON         LGT SNOW  36  30  80 NE7       29.77F
ORTONVILLE     CLOUDY    27  21  80 N15       29.78S WCI  15
MADISON        CLOUDY    30  28  93 N13       29.77S WCI  20
WILLMAR        FAIR      39  36  87 NE12      29.74F
$$
MNZ033>034-036-042>043-049>051-058-059-281800-
   Central Minnesota

CITY           SKY/WX    TMP DP  RH WIND       PRES   REMARKS
ST CLOUD       CLOUDY    36  33  89 NE8       29.76R
SAUK CENTRE    LGT SNOW  32  31  96 N10       29.75S WCI  24
PAYNESVILLE    CLOUDY    35  35 100 NE8       29.75R FOG     WCI  28
AITKIN         CLOUDY    34  27  75 N9        29.78R WCI  26
PINE RIVER     CLOUDY    27  25  93 N9        29.84S WCI  17
BRAINERD       CLOUDY    32  27  81 N9        29.79R HAZE    WCI  24
STAPLES        CLOUDY    28  21  74 N9        29.79F WCI  20
LONG PRAIRIE   FLURRIES  30  27  86 NW9       29.77R WCI  22
LITTLE FALLS   LGT SNOW  32  30  93 N3        29.77S VSB 1
LITCHFIELD     PTSUNNY   41  34  75 NE13      29.72F
BUFFALO        PTSUNNY   41  32  71 N13G18    29.73S
MAPLE LAKE     CLOUDY    41  34  75 NE9       29.75R
HUTCHINSON     SUNNY     43  34  70 N15G21    29.71F
$$
MNZ037-044-045-052-053-281800-
   East Central Minnesota

CITY           SKY/WX    TMP DP  RH WIND       PRES   REMARKS
PRINCETON      CLOUDY    39  32  75 N9        29.75S
MORA           CLOUDY    34  32  93 NE5       29.78R WCI  30
CAMBRIDGE      CLOUDY    37  28  70 N7        29.74R
RUSH CITY      CLOUDY    35  31  83 NE7       29.76S WCI  29
MOOSE LAKE     LGT SNOW  32  30  93 NE5       29.76S WCI  27
HINCKLEY       CLOUDY    34  32  93 NE6       29.77R WCI  29
CLOQUET        LGT SNOW  32  30  93 E8        29.78S WCI  25
MCGREGOR       CLOUDY    32  30  93 N5        29.80R WCI  27
$$
MNZ071>073-080-081-089-090-097-098-281800-
   Southwest Minnesota

CITY           SKY/WX    TMP DP  RH WIND       PRES   REMARKS
MONTEVIDEO     LGT SNOW  30  30 100 N6        29.77R WCI  24
GRANITE FALLS  CLOUDY    37  33  87 NW13      29.75F
CANBY          CLOUDY    28  26  89 NW10      29.77S WCI  19
MARSHALL       CLOUDY    31  28  89 N16       29.72F WCI  20
REDWOOD FALLS  MOSUNNY   45  32  60 N13G18    29.69F
OLIVIA         PTSUNNY   41  34  75 NE14      29.71F
PIPESTONE      CLOUDY    34  28  80 NE14G21   29.66F WCI  24
WINDOM         MOSUNNY   37  34  87 N14       29.67F
WORTHINGTON    CLOUDY    34  30  86 N12       29.67F FOG     WCI  25
JACKSON        MOSUNNY   36  32  87 N8        29.66F
TRACY          CLOUDY    34  33  94 N13       29.70F WCI  25
SLAYTON        CLOUDY    32  31  96 N16       29.68F FOG     WCI  21
$$
MNZ065>067-074>077-082>085-091>093-281800-
   South Central Minnesota

CITY           SKY/WX    TMP DP  RH WIND       PRES   REMARKS
MANKATO          N/A     42  36  79 NE9       29.68R
NEW ULM        SUNNY     41  32  70 NE6       29.69S
ST JAMES       PTSUNNY   37  36  93 NW10      29.69S
FAIRMONT       CLOUDY    40  33  76 N8        29.66S
GLENCOE        SUNNY     45  36  72 NE8       29.69F
FARIBAULT      PTSUNNY   39  34  81 NE7       29.67F
OWATONNA       MOSUNNY   39  34  81 NE9       29.66F
WASECA         CLOUDY    39  34  81 E12       29.67F
ALBERT LEA     PTSUNNY   37  36  93 NE9G16    29.65S FOG
$$
MNZ078>079-086>088-094>096-281800-
   Southeast Minnesota

CITY           SKY/WX    TMP DP  RH WIND       PRES   REMARKS
ROCHESTER      CLOUDY    39  38  96 NE7       29.67S FOG
RED WING       CLOUDY    43  30  61 E3        29.69S
STANTON        CLOUDY    40  34  80 E5        29.67F
WINONA         CLOUDY    41  37  87 CALM      29.69S
AUSTIN           N/A     39  34  81 NE8       29.65S
PRESTON        FOG       37  36  95 NE6       29.65F VSB 1/4
$$
ABBREVIATIONS USED IN REMARKS
   TC - TEMPERATURES IN CELSIUS
  WCI - WIND CHILL INDEX
   HX - HEAT INDEX
  VSB - VISIBILITY
$$




USA.gov is the U.S. government's official web portal to all federal, state and local government web resources and services.